Mattoon, IL

11:23 PM CST on December 11, 2019 (GMT -0600)
Coles County Memorial

Weather History for KMTO - November, 2019

Change the Weather History Date:

Thursday, November 14, 2019

  Actual Average Record
Temperature  
Mean Temperature 31 °F 44 °F  
Max Temperature 37 °F 53 °F 76 °F (1971)
Min Temperature 25 °F 36 °F 10 °F (1986)
Degree Days  
Heating Degree Days 34 21  
Month to date heating degree days 424 256  
Since 1 July heating degree days 757 660  
Cooling Degree Days 0 0  
Month to date cooling degree days 0 0  
Year to date cooling degree days 1256 1057  
Moisture  
Dew Point 22 °F    
Average Humidity 70    
Maximum Humidity 81    
Minimum Humidity 58    
Precipitation  
Precipitation 0.00 in 0.13 in 2.89 in (1993)
Month to date precipitation T 1.63  
Year to date precipitation 32.15 33.43  
Sea Level Pressure  
Sea Level Pressure 30.27 in    
Wind  
Wind Speed 7 mph (WNW)    
Max Wind Speed 14 mph    
Max Gust Speed 20 mph    
Visibility 10 miles    
Events      
T = Trace of Precipitation, MM = Missing Value Source: NWS Daily Summary

Daily Weather History Graph

Daily Weather History Graph

Search for Another Location

Airport or City:

Astronomy

Nov. 14, 2019 Rise Set
Actual Time 6:35 AM CST 4:38 PM CST
Civil Twilight 6:07 AM CST 5:07 PM CST
Nautical Twilight 5:34 AM CST 5:39 PM CST
Astronomical Twilight 5:02 AM CST 6:11 PM CST
Moon 6:24 PM CST (11/14) 8:30 AM CST (11/14)
Length of Visible Light 11h 00m
Length of Day
10h 03m
Waning Gibbous, 95% of the Moon is Illuminated
Nov 14
Waning Gibbous
Nov 19
Last Quarter
Nov 26
New
Dec 4
First Quarter
Dec 11
Full

Hourly Weather History & Observations

Time (CST) Temp. Windchill Dew Point Humidity Pressure Visibility Wind Dir Wind Speed Gust Speed Precip Events Conditions
12:53 AM 30.0 °F 20.5 °F 18.0 °F 61% 30.13 in 10.0 mi SSW 11.5 mph - N/A   Overcast
1:53 AM 30.0 °F 21.1 °F 19.0 °F 64% 30.14 in 10.0 mi SSW 10.4 mph - N/A   Overcast
2:53 AM 30.0 °F 22.4 °F 19.0 °F 64% 30.13 in 10.0 mi SSW 8.1 mph - N/A   Mostly Cloudy
3:53 AM 28.0 °F 20.0 °F 19.0 °F 69% 30.15 in 10.0 mi SSW 8.1 mph - N/A   Clear
4:53 AM 27.0 °F 19.5 °F 19.0 °F 72% 30.16 in 10.0 mi SSW 6.9 mph - N/A   Clear
5:53 AM 28.0 °F 20.8 °F 19.0 °F 69% 30.18 in 10.0 mi SSW 6.9 mph - N/A   Overcast
6:53 AM 28.9 °F 23.9 °F 19.9 °F 69% 30.21 in 10.0 mi Variable 4.6 mph - N/A   Overcast
7:53 AM 30.0 °F 26.5 °F 21.0 °F 69% 30.24 in 10.0 mi WSW 3.5 mph - N/A   Overcast
8:53 AM 30.0 °F 24.1 °F 21.0 °F 69% 30.26 in 10.0 mi West 5.8 mph - N/A   Overcast
9:53 AM 30.9 °F 26.2 °F 21.9 °F 69% 30.27 in 10.0 mi WNW 4.6 mph - N/A   Overcast
10:53 AM 34.0 °F 28.0 °F 21.9 °F 61% 30.27 in 10.0 mi NNW 6.9 mph - N/A   Overcast
11:53 AM 35.1 °F 30.1 °F 24.1 °F 64% 30.27 in 10.0 mi NW 5.8 mph - N/A   Clear
12:50 PM 37.4 °F 31.4 °F 24.8 °F 60% 30.25 in 10.0 mi WNW 8.1 mph - N/A   Mostly Cloudy
12:53 PM 37.0 °F 31.0 °F 25.0 °F 62% 30.27 in 10.0 mi WNW 8.1 mph - N/A   Mostly Cloudy
1:53 PM 36.0 °F 29.0 °F 26.1 °F 67% 30.29 in 10.0 mi NW 9.2 mph - N/A   Overcast
2:53 PM 35.1 °F 27.4 °F 27.0 °F 72% 30.30 in 9.0 mi NW 10.4 mph - N/A   Overcast
3:53 PM 34.0 °F 26.6 °F 26.1 °F 73% 30.31 in 9.0 mi NNW 9.2 mph - N/A   Overcast
4:53 PM 33.1 °F 26.9 °F 26.1 °F 75% 30.34 in 7.0 mi NNW 6.9 mph - N/A   Overcast
5:53 PM 33.1 °F 26.1 °F 25.0 °F 72% 30.35 in 9.0 mi WNW 8.1 mph - N/A   Overcast
6:53 PM 32.0 °F 24.8 °F 24.1 °F 73% 30.36 in 10.0 mi NW 8.1 mph - N/A   Overcast
7:53 PM 32.0 °F 23.0 °F 23.0 °F 69% 30.37 in 10.0 mi NW 11.5 mph - N/A   Overcast
8:53 PM 32.0 °F 24.8 °F 24.1 °F 73% 30.37 in 10.0 mi NW 8.1 mph - N/A   Overcast
9:16 PM 30.0 °F 25.2 °F 23.0 °F 75% 30.34 in 8.0 mi NW 4.6 mph - N/A   Scattered Clouds
9:53 PM 28.9 °F - 23.0 °F 78% 30.37 in 7.0 mi Calm Calm - N/A   Clear
11:53 PM 27.0 °F 21.6 °F 21.9 °F 81% 30.37 in 9.0 mi WSW 4.6 mph - N/A   Clear